Regional Weather Roundup
Issued by NWS

Home | Current Version | Previous Version | Graphics & Text | Print | Product List | Glossary Off
Versions: 1 2 3 4 5 6 7 8 9 10 11 12 13 14 15 16 17 18 19 20 21 22 23 24 25 26 27 28 29 30 31 32 33 34 35 36 37 38 39 40 41 42 43 44 45 46 47 48 49 50

000
ASUS43 KMKX 301311
RWRWI

WISCONSIN REGIONAL WEATHER ROUNDUP
NATIONAL WEATHER SERVICE MILWAUKEE/SULLIVAN WI
800 AM CDT SAT APR 30 2016

NOTE: "FAIR" INDICATES FEW OR NO CLOUDS BELOW 12,000 FEET WITH NO
SIGNIFICANT WEATHER AND/OR OBSTRUCTIONS TO VISIBILITY.

WIZ001-002-006>008-014>016-023>028-301400-
NORTHWEST WISCONSIN

CITY           SKY/WX    TMP DP  RH WIND       PRES   REMARKS
SUPERIOR ARPT  SUNNY     41  35  78 NE13G21   30.26S
ASHLAND        MOSUNNY   41  36  82 NE12      30.25S
HAYWARD        CLOUDY    42  30  62 NE13      30.18F
SIREN          CLOUDY    40  31  70 NE9       30.17S WCI  34
CUMBERLAND     CLOUDY    39  32  75 E7        30.15R WCI  34
RICE LAKE      CLOUDY    41  32  71 N5        30.17R
CHETEK         CLOUDY    42  32  68 NE8       30.15S
LADYSMITH      CLOUDY    42  32  69 E10       30.17F
EAU CLAIRE     CLOUDY    42  34  73 NE10      30.11F
MENOMONIE      CLOUDY    43  34  71 NE8       30.11S
NEW RICHMOND   CLOUDY    41  32  69 E9        30.11S
OSCEOLA        PTSUNNY   42  33  70 NE10      30.15F
$$

WIZ003>005-009-010-017-018-301400-
NORTH CENTRAL WISCONSIN

CITY           SKY/WX    TMP DP  RH WIND       PRES   REMARKS
MANITOWISH WTR MOSUNNY   41  31  69 NE8       30.20S
ARBOR VITAE    CLOUDY    42  32  69 NE7       30.19S
WOODRUFF       CLOUDY    42  32  69 NE7       30.19S
RHINELANDER    CLOUDY    41  29  62 E7        30.19R
EAGLE RIVER    CLOUDY    41  29  63 NE7       30.20R
LAND O LAKES   MOSUNNY   41  31  67 NE6       30.21F
PHILLIPS       CLOUDY    39  31  73 NE7       30.17S WCI  34
TOMAHAWK       CLOUDY    40  31  68 NE8       30.17F WCI  35
MEDFORD        CLOUDY    39  32  75 NE12      30.13F WCI  32
MERRILL        CLOUDY    39  32  76 E5        30.17S
$$

WIZ029-030-035-036-043>047-301400-
CENTRAL WISCONSIN

CITY           SKY/WX    TMP DP  RH WIND       PRES   REMARKS
WAUSAU         CLOUDY    44  31  60 E10       30.12F
MOSINEE        SUNNY     41  32  70 NE10      30.14F
MARSHFIELD     CLOUDY    42  32  67 NE10      30.10F
STEVENS POINT  CLOUDY    39  31  72 E9        30.13F WCI  33
WAUPACA        CLOUDY    43  34  71 NE7       30.14S
WAUTOMA        CLOUDY    41  34  76 NE9       30.12S
WISC RAPIDS    CLOUDY    42  29  59 E12       30.12F
CAMP DOUGLAS   CLOUDY    41  41 100 E10       30.07F
$$

WIZ011>013-019>022-031-037>040-048>050-301400-
NORTHEAST WISCONSIN

CITY           SKY/WX    TMP DP  RH WIND       PRES   REMARKS
ANTIGO         CLOUDY    41  33  74 NE5       30.16S
SHAWANO        PTSUNNY   44  34  68 NE9       30.17S
OCONTO         MOSUNNY   44  36  75 N5        30.18R
STURGEON BAY   CLOUDY    45  34  65 E8        30.21R
GREEN BAY      PTSUNNY   45  38  76 NE15      30.15S
MANITOWOC      CLOUDY    42  38  85 MISG      30.16R
APPLETON       PTSUNNY   41  36  81 NE9       30.12R
CLINTONVILLE   CLOUDY    41  32  70 NE7       30.15F
OSHKOSH        PTSUNNY   44  34  67 NE9       30.12S
$$

WIZ032>034-041-042-053>061-301400-
SOUTHWEST WISCONSIN

CITY           SKY/WX    TMP DP  RH WIND       PRES   REMARKS
LA CROSSE      CLOUDY    45  34  65 E7        30.07S
SPARTA         CLOUDY    43  33  69 E9G16     30.08F
VIROQUA        CLOUDY    44  38  82 E12       30.05S
BOSCOBEL       CLOUDY    48  38  68 E6        30.04F
PRAIRIE DU CHI CLOUDY    46  37  70 NE9G18    30.01S
PLATTEVILLE    CLOUDY    46  41  84 E16G24    30.00F
$$

WIZ056-057-062-063-064-067-068-301400-
SOUTH CENTRAL WISCONSIN

CITY           SKY/WX    TMP DP  RH WIND       PRES   REMARKS
REEDSBURG      CLOUDY    41  32  70 E5        30.07F
BARABOO/DELLS  CLOUDY    41  32  71 E5        30.07F
LONE ROCK      CLOUDY    46  38  73 E9        30.06F
MINERAL POINT  CLOUDY    46  37  71 E15G22    30.02F
MADISON        CLOUDY    44  33  65 E9        30.07S
MIDDLETON      PTSUNNY   46  35  67 E8        30.07F
WATERTOWN      CLOUDY    43  35  72 E12       30.08F
MONROE         PTSUNNY   43  37  81 E13       30.02F
JANESVILLE     CLOUDY    46  39  76 E15       30.05F
$$

WIZ051-052-058>065-066-070>072-301400-
SOUTHEAST WISCONSIN

CITY           SKY/WX    TMP DP  RH WIND       PRES   REMARKS
MILWAUKEE      CLOUDY    44  39  82 E12       30.10S
WAUKESHA       SUNNY     41  36  81 E5        30.11R
MILWAUKEE/TIMM SUNNY     45  37  76 E7        30.11S
RACINE         CLOUDY    44  38  79 E12       30.11S
BURLINGTON     PTSUNNY   43  38  85 E7        30.07F
KENOSHA        CLOUDY    44  40  85 E13       30.09S
FOND DU LAC    PTSUNNY   43  33  68 E9        30.11F
SHEBOYGAN      CLOUDY    43  38  82 NE8       30.13S
WEST BEND      PTSUNNY   41  36  81 E8        30.11S
JUNEAU         CLOUDY    42  33  69 NE10      30.10F
$$

LSZ147-162-301400-
LAKE SUPERIOR

STATION/POSITION TIME  TEMP    WIND        PRES    WAVE
                       AIR SEA DIR/SP/G            HT/PER
                 (UTC) (F)     (DEG/KT/KT) (MB)    (FT/S)
W MID LAKE BUOY  1250   38 36   40/ 12/ 12 1026.3R   1/ 3
DEVILS ISLAND    1300   39      70/ 14/ 16 1026.1R
SAXON HARBOR     1200   33     200/  2/  3 1023.7R
$$

LMZ867-665-643>646-301400-
LAKE MICHIGAN

STATION/POSITION TIME  TEMP    WIND        PRES    WAVE
                       AIR SEA DIR/SP/G            HT/PER
                 (UTC) (F)     (DEG/KT/KT) (MB)    (FT/S)
CHAMBERS ISLAND  1200   41      20/ 10/ 13 1022.0S
N MID LAKE BUOY  1250   39 38   50/ 10/ 12 1022.6R   1/ 3
NORTHPORT PIER   1202   41     340/  5/  7 1022.0R
ALGOMA LAKESHORE 1115           60/ 13/ 16   N/A
KEWAUNEE LAKESHO 1200   41      40/  8/ 11 1020.4R
SHEBOYGAN LAKESH 1300   41      20/  7/  8 1021.4R
PORT WASHINGTON  1200   43      40/  9/ 11 1021.0R
S MID LAKE BUOY  1250   42 40   90/ 10/ 12 1019.6R   1/ 3
KENOSHA   LAKESH 1300   42      90/ 15/ 17 1018.6F
$$

TC  - TEMPERATURE IN CELSIUS
VSB - VISIBILITY IN STATUTE MILES
WCI - WIND CHILL INDEX
HX  - HEAT INDEX




USA.gov is the U.S. government's official web portal to all federal, state and local government web resources and services.